[[{"header":{"parameterUnit":"m.s-1","parameterCategory":1,"la1":30.2991,"la2":30.254,"lo1":-89.0895,"lo2":-89.0444,"dy":0.0017,"dx":0.0017,"nx":28,"ny":28,"refTime":"2024-05-16T03:00:00:Z","depth":0,"parameterNumber":2,"parameterNumberName":"U-component_of_WINDS"},"data":[0,0,0,0,0,0,0,0,0,0,0,0,0,0,0,0,0,0,0,0,0,0,0,0,0,0,0,0,0,0,0,0,0,0,0,0,0,0,0,0,0,0,0,0,0,0,0,0,0,0,0,0,0,0,0,0,0,0,-3.3712,-3.3713,0,-3.3804,-3.3805,-3.3806,-3.3806,-3.3805,-3.3804,-3.3803,-3.3897,-3.3901,-3.3905,0,0,0,0,0,0,0,0,0,0,0,0,0,-3.3533,-3.3537,-3.3711,-3.3713,-3.3714,-3.3804,-3.3805,-3.3807,-3.3806,-3.3805,-3.3803,-3.3802,-3.3896,-3.3901,-3.3905,0,0,0,0,0,0,0,0,0,0,0,0,0,-3.3617,-3.3538,-3.3711,-3.3725,-3.3727,-3.3804,-3.3806,-3.3807,-3.3807,-3.3805,-3.3803,-3.3801,-3.3895,-3.39,-3.3906,-3.3976,0,0,-3.3922,-3.3925,0,0,0,0,0,0,0,0,-3.3612,-3.3624,-3.3721,-3.3724,-3.3726,-3.3792,-3.3777,-3.3864,-3.3807,-3.3776,-3.3803,-3.3801,-3.3864,-3.3872,-3.3893,-3.398,-3.3984,-3.3923,-3.3926,-3.3928,-3.393,0,0,0,0,0,0,0,-3.3606,-3.362,-3.3748,-3.3723,-3.3726,-3.3726,-3.3736,-3.3794,-3.3829,-3.3779,-3.3779,-3.379,-3.3865,-3.3888,-3.3895,-3.3986,-3.3923,-3.3927,-3.3931,-3.3933,-3.4134,-3.4136,0,0,0,0,0,0,-3.3598,-3.3615,-3.3745,-3.3751,-3.3664,-3.373,-3.3741,-3.3773,-3.3828,-3.3835,-3.3792,-3.379,-3.3879,-3.3889,-3.3899,-3.3983,-3.3928,-3.3934,-3.3937,-3.4132,-3.4134,-3.4136,0,0,0,0,0,0,-3.3594,-3.361,-3.3742,-3.3683,-3.37,-3.3735,-3.377,-3.3775,-3.3798,-3.3838,-3.3844,-3.3809,-3.3878,-3.3891,-3.3956,-3.3987,-3.3936,-3.3941,-3.4129,-3.4132,-3.4135,-3.4154,0,0,0,0,0,0,-3.3589,-3.3608,-3.3635,-3.3684,-3.3703,-3.3798,-3.3772,-3.3779,-3.3808,-3.3806,-3.3856,-3.3862,-3.3878,-3.3948,-3.3962,-3.3993,-3.3945,-3.4127,-3.4131,-3.4134,-3.4151,-3.4157,-3.4163,0,0,0,0,0,-3.3583,-3.3637,-3.3637,-3.3653,-3.3738,-3.38,-3.3811,-3.3828,-3.381,-3.3838,-3.3863,-3.3861,-3.3981,-3.3955,-3.397,-3.4004,-3.4125,-3.4129,-3.4134,-3.4148,-3.4156,-3.4163,0,0,0,0,0,0,-3.3592,-3.3644,-3.3644,-3.3716,-3.3753,-3.3799,-3.3835,-3.3836,-3.3879,-3.3876,-3.3895,-3.3906,-3.3971,-3.3994,-3.3964,-3.4074,-3.4051,-3.4059,-3.4056,-3.4064,-3.407,-3.4063,-3.395,0,0,0,0,0,-3.3602,-3.3648,-3.3691,-3.3751,-3.3769,-3.3799,-3.3826,-3.3836,-3.3876,-3.3892,-3.3922,-3.396,-3.4007,-3.4037,-3.4082,-3.4155,-3.4165,-3.4185,-3.4191,-3.4196,-3.4202,-3.4241,-3.425,-3.4151,-3.4151,-3.4151,0,0,-3.3624,-3.3658,-3.3686,-3.3753,-3.3783,-3.383,-3.3812,-3.3863,-3.3898,-3.3899,-3.3963,-3.3986,-3.403,-3.4099,-3.4131,-3.412,-3.4232,-3.4202,-3.4205,-3.4209,-3.4247,-3.4256,-3.4264,-3.4155,-3.4154,-3.4153,0,0,-3.3688,-3.3719,-3.3771,-3.3801,-3.3847,-3.3866,-3.3879,-3.3925,-3.3941,-3.4005,-3.4006,-3.4048,-3.4128,-3.4159,-3.4186,-3.426,-3.4259,-3.4275,-3.4306,-3.4343,-3.4351,-3.4358,-3.4384,-3.4393,-3.4281,-3.4281,-3.4281,0,-3.3709,-3.378,-3.3798,-3.3848,-3.3877,-3.3881,-3.3933,-3.3962,-3.4021,-3.404,-3.4028,-3.4128,-3.4158,-3.4233,-3.4252,-3.4273,-3.4287,-3.4269,-3.4349,-3.4356,-3.4363,-3.4387,-3.4397,-3.4283,-3.4282,-3.4282,-3.4282,0,-3.3804,-3.3853,-3.3889,-3.3945,-3.3978,-3.403,-3.4055,-3.4086,-3.4093,-3.4113,-3.4178,-3.4214,-3.4266,-3.4285,-3.4292,-3.4361,-3.4353,-3.4345,-3.4322,-3.4373,-3.4397,-3.4406,-3.4285,-3.4284,-3.4284,-3.4283,0,0,-3.3876,-3.394,-3.3953,-3.3978,-3.4028,-3.4067,-3.4118,-3.4169,-3.4195,-3.4235,-3.4278,-3.4345,-3.4337,-3.4367,-3.4378,-3.4411,-3.4467,-3.4399,-3.44,-3.4409,-3.4544,-3.4549,-3.456,-3.4467,-3.4469,-3.447,-3.4539,0,-3.3944,-3.4035,-3.4051,-3.4131,-3.4176,-3.418,-3.4224,-3.426,-3.428,-3.4321,-3.4344,-3.4391,-3.4377,-3.4395,-3.4428,-3.4453,-3.4494,-3.4448,-3.4506,-3.4508,-3.4494,-3.4572,-3.4578,-3.4642,-3.4549,-3.455,-3.4552,0,-3.4035,-3.4077,-3.4161,-3.4204,-3.4224,-3.4264,-3.4311,-3.435,-3.4391,-3.4403,-3.4436,-3.4443,-3.4496,-3.4471,-3.4544,-3.4512,-3.4537,-3.4553,-3.4556,-3.4561,-3.4532,-3.4578,-3.4662,-3.4671,-3.4566,-3.4565,-3.4564,0,-3.4078,-3.4155,-3.4215,-3.4236,-3.4289,-3.4317,-3.434,-3.4378,-3.4407,-3.4449,-3.4468,-3.4515,-3.4541,-3.4577,-3.4596,-3.4576,-3.4667,-3.4644,-3.4678,-3.4677,-3.4696,-3.4694,-3.4784,-3.4714,-3.4714,-3.4714,-3.4713,0,-3.4152,-3.4202,-3.4234,-3.4271,-3.4328,-3.4346,-3.4402,-3.4425,-3.4459,-3.4499,-3.4506,-3.4544,-3.4568,-3.4609,-3.4625,-3.4682,-3.4694,-3.4705,-3.4708,-3.4704,-3.4702,-3.4719,-3.4715,-3.4716,-3.4716,-3.4715,-3.4715,0,-3.4209,-3.4232,-3.4297,-3.4342,-3.4354,-3.4394,-3.4431,-3.4467,-3.4487,-3.4538,-3.4551,-3.4583,-3.4632,-3.4655,-3.4716,-3.4726,-3.4791,-3.4792,-3.4777,-3.4778,-3.481,-3.4806,-3.4913,-3.4928,-3.4849,-3.4849,-3.485,0,-3.4254,-3.4293,-3.4341,-3.4368,-3.4392,-3.4437,-3.4466,-3.4486,-3.4517,-3.4565,-3.4594,-3.4643,-3.4684,-3.4762,-3.479,-3.4836,-3.4838,-3.4872,-3.4845,-3.4838,-3.4837,-3.4834,-3.4837,-3.4876,-3.4877,-3.4878,-3.4878,0,-3.4331,-3.434,-3.4383,-3.4429,-3.4464,-3.4501,-3.4538,-3.456,-3.4585,-3.4619,-3.4669,-3.47,-3.4762,-3.481,-3.4858,-3.4882,-3.4884,-3.4887,-3.4897,-3.4892,-3.4881,-3.4886,-3.4789,-3.4884,-3.4884,-3.4883,-3.4883,-3.4883,-3.4383,-3.4417,-3.4456,-3.4502,-3.4532,-3.4566,-3.4601,-3.4625,-3.4667,-3.4718,-3.4728,-3.478,-3.4819,-3.4884,-3.4909,-3.495,-3.4942,-3.4957,-3.4961,-3.4964,-3.4965,-3.4876,-3.4959,-3.4959,-3.4959,-3.4959,-3.4959,0,-3.4459,-3.4484,-3.4527,-3.4578,-3.4614,-3.4613,-3.4653,-3.4683,-3.473,-3.4765,-3.4805,-3.4861,-3.4908,-3.494,-3.4987,-3.5014,-3.5016,-3.5025,-3.5023,-3.5028,-3.497,-3.4956,-3.5023,-3.5023,-3.5023,-3.5023,-3.5023,-3.5023,-3.4504,-3.4561,-3.4575,-3.4647,-3.4671,-3.4723,-3.4746,-3.4777,-3.4805,-3.4868,-3.4907,-3.4927,-3.4961,-3.501,-3.5053,-3.5061,-3.5078,-3.5087,-3.5095,-3.5039,-3.5033,-3.5026,-3.5013,-3.5091,-3.5091,-3.515,-3.515,-3.5151]},{"header":{"parameterUnit":"m.s-1","parameterCategory":1,"la1":30.2991,"la2":30.254,"lo1":-89.0895,"lo2":-89.0444,"dy":0.0017,"dx":0.0017,"nx":28,"ny":28,"refTime":"2024-05-16T03:00:00:Z","depth":0,"parameterNumber":3,"parameterNumberName":"V-component_of_WINDS"},"data":[0,0,0,0,0,0,0,0,0,0,0,0,0,0,0,0,0,0,0,0,0,0,0,0,0,0,0,0,0,0,0,0,0,0,0,0,0,0,0,0,0,0,0,0,0,0,0,0,0,0,0,0,0,0,0,0,0,0,5.7437,5.7437,0,5.7473,5.7473,5.7474,5.7401,5.7399,5.7397,5.7394,5.7428,5.7431,5.7434,0,0,0,0,0,0,0,0,0,0,0,0,0,5.7302,5.7305,5.7437,5.7437,5.7438,5.7473,5.7474,5.7474,5.7402,5.7399,5.7396,5.7393,5.7427,5.743,5.7434,0,0,0,0,0,0,0,0,0,0,0,0,0,5.7351,5.7306,5.7437,5.7406,5.7404,5.7473,5.7474,5.7474,5.7402,5.7399,5.7395,5.7392,5.7425,5.743,5.7434,5.7534,0,0,5.7449,5.7451,0,0,0,0,0,0,0,0,5.7349,5.7356,5.741,5.7408,5.7406,5.7429,5.7438,5.7494,5.7403,5.7403,5.7394,5.739,5.7431,5.7435,5.7449,5.7536,5.7537,5.7449,5.7452,5.7454,5.7455,0,0,0,0,0,0,0,5.7345,5.7354,5.7451,5.7411,5.7408,5.7389,5.7393,5.7448,5.7436,5.7402,5.7397,5.7403,5.7429,5.7445,5.7449,5.7538,5.7449,5.7453,5.7456,5.7458,5.7708,5.7712,0,0,0,0,0,0,5.7346,5.7352,5.745,5.7452,5.7368,5.7395,5.7398,5.7425,5.7435,5.7433,5.7406,5.7399,5.7439,5.7444,5.745,5.7567,5.7454,5.7458,5.7461,5.7705,5.7709,5.7713,0,0,0,0,0,0,5.7344,5.7356,5.7448,5.7401,5.7411,5.7401,5.7432,5.7428,5.7444,5.7438,5.7435,5.7425,5.7436,5.7444,5.7514,5.7568,5.746,5.7465,5.77,5.7706,5.7711,5.7803,0,0,0,0,0,0,5.734,5.7355,5.7393,5.7402,5.7414,5.7513,5.7435,5.7431,5.7452,5.7444,5.7455,5.7453,5.7434,5.7508,5.7519,5.7572,5.7468,5.7695,5.7703,5.771,5.7795,5.7811,5.7825,0,0,0,0,0,5.7336,5.7417,5.7396,5.7408,5.7462,5.7516,5.7522,5.75,5.7457,5.7495,5.7491,5.7453,5.7561,5.7516,5.7528,5.7583,5.7692,5.7701,5.7709,5.7788,5.7808,5.7825,0,0,0,0,0,0,5.7412,5.7417,5.7394,5.7481,5.7499,5.7504,5.755,5.7521,5.7551,5.7542,5.7511,5.7514,5.7591,5.7594,5.7544,5.768,5.7619,5.763,5.7675,5.7694,5.7708,5.7705,5.7472,0,0,0,0,0,5.744,5.7485,5.7486,5.7562,5.7573,5.7561,5.7583,5.7565,5.7581,5.7588,5.759,5.7607,5.7644,5.7669,5.7704,5.7796,5.7797,5.784,5.7855,5.7867,5.7877,5.7926,5.7945,5.7742,5.7742,5.7742,0,0,5.7496,5.7505,5.7534,5.7578,5.759,5.7636,5.7567,5.7618,5.7652,5.7595,5.7662,5.7665,5.7681,5.7763,5.7799,5.7768,5.7934,5.7879,5.7888,5.7891,5.7937,5.7956,5.7973,5.7748,5.7747,5.7746,0,0,5.7622,5.7634,5.7698,5.7712,5.7732,5.7723,5.7739,5.7749,5.7749,5.7816,5.7775,5.7814,5.788,5.7893,5.7909,5.8043,5.8008,5.8055,5.8132,5.818,5.8196,5.821,5.8257,5.8275,5.8065,5.8065,5.8066,0,5.7689,5.7758,5.7735,5.779,5.781,5.7764,5.7829,5.7843,5.7872,5.7887,5.7852,5.7934,5.7942,5.8027,5.806,5.8075,5.8091,5.8052,5.8196,5.821,5.8223,5.8267,5.8285,5.8071,5.807,5.807,5.8069,0,5.7839,5.7887,5.7937,5.7969,5.7995,5.8055,5.804,5.8069,5.805,5.8045,5.8114,5.8123,5.8158,5.8177,5.8157,5.8259,5.8239,5.8202,5.8138,5.8248,5.8289,5.8306,5.8079,5.8077,5.8075,5.8074,0,0,5.8011,5.8031,5.805,5.8064,5.8083,5.8119,5.8177,5.8214,5.8239,5.8262,5.8308,5.8366,5.8332,5.835,5.8331,5.8374,5.8479,5.833,5.833,5.8357,5.8591,5.8619,5.8639,5.8457,5.8461,5.8463,5.859,0,5.8135,5.8236,5.8218,5.8316,5.836,5.8318,5.8368,5.8385,5.8383,5.8419,5.8416,5.8457,5.8409,5.842,5.846,5.8458,5.8525,5.8449,5.8499,5.8501,5.8495,5.866,5.8689,5.8808,5.8606,5.8608,5.861,0,5.8293,5.8323,5.8425,5.8439,5.8457,5.8502,5.8534,5.8571,5.8589,5.8584,5.8606,5.858,5.8637,5.8576,5.8653,5.8602,5.8622,5.8624,5.8628,5.863,5.8561,5.8665,5.8845,5.8863,5.8636,5.8633,5.8632,0,5.8407,5.8474,5.8543,5.8557,5.8574,5.8607,5.8616,5.8631,5.8655,5.8683,5.8697,5.8732,5.875,5.8777,5.8761,5.8718,5.8841,5.8778,5.8838,5.8838,5.8864,5.8862,5.9048,5.888,5.888,5.8879,5.8879,0,5.8546,5.861,5.8595,5.8638,5.8708,5.8688,5.8758,5.8761,5.8776,5.8818,5.8783,5.8823,5.8801,5.8839,5.8827,5.8893,5.8902,5.8899,5.8894,5.8901,5.8901,5.8912,5.8903,5.8884,5.8883,5.8882,5.8881,0,5.8685,5.8678,5.8751,5.8762,5.8767,5.8818,5.8827,5.8867,5.8864,5.8917,5.8929,5.8923,5.8966,5.8954,5.9,5.8992,5.9075,5.9061,5.9069,5.9065,5.9125,5.9119,5.9322,5.9348,5.9165,5.9167,5.9169,0,5.8773,5.8822,5.884,5.8866,5.8878,5.8921,5.8945,5.8927,5.8954,5.898,5.9016,5.9057,5.9088,5.916,5.9159,5.9194,5.918,5.9249,5.9185,5.919,5.9179,5.9176,5.918,5.9261,5.9263,5.9265,5.9266,0,5.8931,5.8925,5.8962,5.8999,5.903,5.9057,5.9081,5.9104,5.9088,5.912,5.9165,5.9189,5.9238,5.9279,5.9312,5.9319,5.929,5.9287,5.9302,5.9308,5.9311,5.9309,5.9102,5.9282,5.928,5.9279,5.9278,5.9277,5.9046,5.9087,5.9107,5.9149,5.9166,5.919,5.9228,5.923,5.9268,5.9307,5.9294,5.9346,5.9363,5.9405,5.9417,5.9457,5.943,5.9453,5.9458,5.9463,5.947,5.9307,5.9463,5.9462,5.9462,5.9461,5.9461,0,5.9201,5.9212,5.9252,5.9287,5.9321,5.9293,5.9319,5.9348,5.9394,5.9414,5.9447,5.9499,5.9539,5.9542,5.9579,5.961,5.9597,5.962,5.9617,5.9619,5.9492,5.9475,5.963,5.963,5.963,5.963,5.9629,5.9629,5.9285,5.9354,5.9351,5.9428,5.9438,5.9489,5.9506,5.9527,5.9543,5.9603,5.9637,5.9639,5.9653,5.9691,5.9726,5.9726,5.9741,5.9768,5.9763,5.9644,5.9628,5.9612,5.9595,5.9772,5.9772,5.9886,5.9887,5.9888]}]]